Location: Unspecified
(47.6578°N, 23.5640°E)
Time: 04:20:30
(UTC+02:00)

ISS - Pass Details

Date: 08 December 2017
Orbit: 402 x 407 km, 51.6° (Epoch: 10 December)

Event Time Altitude Azimuth Distance (km) Brightness Sun altitude
Rises 18:35:41 0° 289° (WNW) 2,331 1.0 -19.5°
Reaches altitude 10° 18:37:50 10° 296° (WNW) 1,469 -0.3 -19.9°
Enters shadow 18:40:30 41° 341° (NNW) 605 -3.0 -20.3°
